Location: Briis
(48.6240°N, 2.1211°E)
Time: 02:42:57
(UTC+00:00)

CZ-2D R/B - Pass Details

Date: 25 September 2020
Orbit: 553 x 637 km, 97.9° (Epoch: 22 October)

Event Time Altitude Azimuth Distance (km) Brightness Sun altitude
Rises 03:20:43 0° 11° (NNE) 2,858 7.5 -23.5°
Reaches altitude 10° 03:22:53 10° 10° (N) 1,964 6.6 -23.1°
Maximum altitude 03:27:09 73° 286° (WNW) 650 3.4 -22.5°
Enters shadow 03:27:18 72° 265° (W) 654 3.4 -22.5°
